TEJ103 SCSE-SCEL

Flight info

Callsign TEJ103
Flight time 0h 38m
Altitude 25000
Route EDRON5 EDRON UL302 SIMOK SIMOK7B
Aircraft CRJ9/M-SDFGIRWY/S

Departure

Time 2026-05-06 00:35
Airport La Florida Airport (SCSE)

Arrival

Time 2026-05-06 01:13
Airport Comodoro Arturo Merino Benítez International Airport (SCEL)
Time Latitude Longitude Altitude Speed Heading
2026-05-05 22:49 -29.91631 -71.20399 478 ft 0 kts 205°
2026-05-06 00:29 -29.91634 -71.20400 478 ft 1 kts 186°
2026-05-06 00:30 -29.91643 -71.20399 474 ft 1 kts 150°
2026-05-06 00:30 -29.91649 -71.20381 476 ft 3 kts 83°
2026-05-06 00:30 -29.91628 -71.20359 477 ft 8 kts
2026-05-06 00:30 -29.91602 -71.20339 479 ft 7 kts 68°
2026-05-06 00:31 -29.91546 -71.20264 477 ft 16 kts 62°
2026-05-06 00:31 -29.91562 -71.20141 474 ft 17 kts 115°
2026-05-06 00:31 -29.91614 -71.20010 476 ft 18 kts 115°
2026-05-06 00:31 -29.91670 -71.19873 476 ft 19 kts 117°
2026-05-06 00:32 -29.91732 -71.19732 472 ft 20 kts 117°
2026-05-06 00:32 -29.91794 -71.19590 475 ft 20 kts 117°
2026-05-06 00:32 -29.91858 -71.19448 477 ft 20 kts 117°
2026-05-06 00:32 -29.91923 -71.19304 476 ft 20 kts 116°
2026-05-06 00:33 -29.91993 -71.19158 477 ft 21 kts 128°
2026-05-06 00:33 -29.92033 -71.19080 477 ft 0 kts 58°
2026-05-06 00:33 -29.92030 -71.19077 477 ft 0 kts 24°
2026-05-06 00:33 -29.92019 -71.19078 473 ft 2 kts 332°
2026-05-06 00:34 -29.92009 -71.19089 476 ft 1 kts 297°
2026-05-06 00:34 -29.92002 -71.19114 477 ft 5 kts 293°
2026-05-06 00:34 -29.92001 -71.19115 477 ft 0 kts 293°
2026-05-06 00:35 -29.91988 -71.19149 474 ft 25 kts 294°
2026-05-06 00:35 -29.91791 -71.19602 477 ft 101 kts 297°
2026-05-06 00:35 -29.91379 -71.20546 480 ft 159 kts 298°
2026-05-06 00:35 -29.90817 -71.21712 1110 ft 165 kts 300°
2026-05-06 00:36 -29.90262 -71.22772 2132 ft 157 kts 301°
2026-05-06 00:36 -29.89615 -71.23981 2404 ft 198 kts 300°
2026-05-06 00:36 -29.89083 -71.25445 3343 ft 199 kts 285°
2026-05-06 00:36 -29.89232 -71.27015 4237 ft 207 kts 239°
2026-05-06 00:37 -29.90373 -71.28037 5110 ft 219 kts 195°
2026-05-06 00:37 -29.91891 -71.27933 5960 ft 225 kts 153°
2026-05-06 00:37 -29.93310 -71.27129 6820 ft 231 kts 153°
2026-05-06 00:37 -29.94828 -71.26481 7647 ft 239 kts 164°
2026-05-06 00:38 -29.96523 -71.26150 8302 ft 254 kts 178°
2026-05-06 00:38 -29.98289 -71.26235 9099 ft 259 kts 190°
2026-05-06 00:38 -30.00076 -71.26604 9972 ft 266 kts 194°
2026-05-06 00:38 -30.01962 -71.27083 10380 ft 291 kts 195°
2026-05-06 00:39 -30.04054 -71.27611 10769 ft 316 kts 195°
2026-05-06 00:39 -30.06245 -71.28126 11249 ft 336 kts 194°
2026-05-06 00:39 -30.08598 -71.28645 11796 ft 353 kts 193°
2026-05-06 00:39 -30.11107 -71.28902 12392 ft 370 kts 184°
2026-05-06 00:40 -30.13707 -71.28916 13216 ft 377 kts 183°
2026-05-06 00:40 -30.16347 -71.28889 14051 ft 382 kts 183°
2026-05-06 00:40 -30.19020 -71.28897 14846 ft 385 kts 185°
2026-05-06 00:40 -30.21710 -71.28975 15630 ft 389 kts 186°
2026-05-06 00:41 -30.24427 -71.29077 16423 ft 393 kts 186°
2026-05-06 00:41 -30.27173 -71.29159 17194 ft 397 kts 186°
2026-05-06 00:41 -30.29948 -71.29252 17953 ft 401 kts 187°
2026-05-06 00:41 -30.32748 -71.29344 18638 ft 404 kts 187°
2026-05-06 00:42 -30.35571 -71.29430 19302 ft 407 kts 187°
2026-05-06 00:42 -30.38412 -71.29519 19947 ft 411 kts 187°
2026-05-06 00:42 -30.41287 -71.29612 20600 ft 415 kts 188°
2026-05-06 00:42 -30.44179 -71.29704 21223 ft 418 kts 188°
2026-05-06 00:43 -30.47096 -71.29796 21817 ft 421 kts 188°
2026-05-06 00:43 -30.50039 -71.29889 22393 ft 424 kts 189°
2026-05-06 00:43 -30.52998 -71.29980 22960 ft 427 kts 189°
2026-05-06 00:43 -30.56008 -71.29649 23454 ft 446 kts 171°
2026-05-06 00:44 -30.58945 -71.28329 23905 ft 459 kts 159°
2026-05-06 00:44 -30.61760 -71.26521 24335 ft 466 kts 154°
2026-05-06 00:44 -30.64558 -71.24591 24714 ft 471 kts 154°
2026-05-06 00:44 -30.67430 -71.22670 24910 ft 480 kts 156°
2026-05-06 00:45 -30.70402 -71.20810 25013 ft 491 kts 158°
2026-05-06 00:45 -30.73444 -71.18950 25058 ft 496 kts 157°
2026-05-06 00:45 -30.76497 -71.17041 25066 ft 499 kts 157°
2026-05-06 00:45 -30.79563 -71.15125 25062 ft 501 kts 157°
2026-05-06 00:46 -30.82640 -71.13207 25067 ft 503 kts 157°
2026-05-06 00:46 -30.85735 -71.11270 25073 ft 505 kts 157°
2026-05-06 00:46 -30.88837 -71.09330 25078 ft 507 kts 158°
2026-05-06 00:46 -30.91953 -71.07380 25065 ft 508 kts 157°
2026-05-06 00:47 -30.95070 -71.05427 25053 ft 509 kts 157°
2026-05-06 00:47 -30.98151 -71.03495 25071 ft 509 kts 157°
2026-05-06 00:47 -31.01274 -71.01534 25063 ft 509 kts 157°
2026-05-06 00:47 -31.04399 -70.99570 25060 ft 509 kts 157°
2026-05-06 00:48 -31.07526 -70.97607 25052 ft 510 kts 157°
2026-05-06 00:48 -31.09594 -70.96307 25054 ft 510 kts 157°
2026-05-06 00:48 -31.12725 -70.94338 25062 ft 510 kts 157°
2026-05-06 00:48 -31.15847 -70.92375 25077 ft 510 kts 157°
2026-05-06 00:49 -31.18970 -70.90406 25083 ft 510 kts 157°
2026-05-06 00:49 -31.22095 -70.88436 25069 ft 510 kts 157°
2026-05-06 00:49 -31.25227 -70.86465 25066 ft 511 kts 157°
2026-05-06 00:49 -31.28348 -70.84489 25069 ft 510 kts 157°
2026-05-06 00:50 -31.31513 -70.82659 25063 ft 502 kts 166°
2026-05-06 00:50 -31.34847 -70.81749 25074 ft 484 kts 182°
2026-05-06 00:50 -31.38177 -70.81647 25087 ft 475 kts 190°
2026-05-06 00:50 -31.41460 -70.81843 25098 ft 470 kts 193°
2026-05-06 00:51 -31.44705 -70.82234 25042 ft 467 kts 195°
2026-05-06 00:51 -31.47892 -70.82660 24890 ft 468 kts 194°
2026-05-06 00:51 -31.51142 -70.83031 24716 ft 470 kts 193°
2026-05-06 00:51 -31.54416 -70.83340 24561 ft 474 kts 193°
2026-05-06 00:52 -31.57719 -70.83643 24553 ft 478 kts 193°
2026-05-06 00:52 -31.61039 -70.83939 24488 ft 480 kts 192°
2026-05-06 00:52 -31.64375 -70.84233 24430 ft 482 kts 193°
2026-05-06 00:52 -31.67721 -70.84562 24383 ft 483 kts 193°
2026-05-06 00:53 -31.71081 -70.84895 24385 ft 485 kts 193°
2026-05-06 00:53 -31.74452 -70.85222 24359 ft 487 kts 192°
2026-05-06 00:53 -31.77840 -70.85391 24033 ft 482 kts 188°
2026-05-06 00:53 -31.81142 -70.85267 23637 ft 466 kts 185°
2026-05-06 00:54 -31.84335 -70.85063 23168 ft 455 kts 185°
2026-05-06 00:54 -31.87460 -70.84873 22675 ft 445 kts 185°
2026-05-06 00:54 -31.90517 -70.84751 22181 ft 436 kts 186°
2026-05-06 00:54 -31.93532 -70.84653 21710 ft 429 kts 186°
2026-05-06 00:55 -31.96496 -70.84548 21277 ft 424 kts 186°
2026-05-06 00:55 -31.99432 -70.84441 20847 ft 419 kts 185°
2026-05-06 00:55 -32.02330 -70.84340 20436 ft 415 kts 185°
2026-05-06 00:55 -32.05206 -70.84235 19997 ft 412 kts 185°
2026-05-06 00:56 -32.08060 -70.84133 19569 ft 409 kts 185°
2026-05-06 00:56 -32.10894 -70.84031 19146 ft 406 kts 185°
2026-05-06 00:56 -32.13709 -70.83932 18729 ft 404 kts 184°
2026-05-06 00:56 -32.16516 -70.83834 18347 ft 402 kts 184°
2026-05-06 00:57 -32.19296 -70.83728 17939 ft 399 kts 184°
2026-05-06 00:57 -32.22063 -70.83630 17544 ft 397 kts 184°
2026-05-06 00:57 -32.24818 -70.83533 17179 ft 395 kts 184°
2026-05-06 00:57 -32.27561 -70.83430 16823 ft 393 kts 183°
2026-05-06 00:58 -32.30294 -70.83337 16401 ft 392 kts 183°
2026-05-06 00:58 -32.33013 -70.83239 16016 ft 390 kts 183°
2026-05-06 00:58 -32.35712 -70.83132 15640 ft 383 kts 184°
2026-05-06 00:58 -32.38349 -70.83042 15273 ft 375 kts 183°
2026-05-06 00:59 -32.40937 -70.82949 14930 ft 369 kts 182°
2026-05-06 00:59 -32.43446 -70.82855 14646 ft 362 kts 182°
2026-05-06 00:59 -32.45944 -70.82760 14363 ft 356 kts 182°
2026-05-06 00:59 -32.48400 -70.82674 14036 ft 351 kts 182°
2026-05-06 01:00 -32.50822 -70.82590 13721 ft 344 kts 182°
2026-05-06 01:00 -32.53188 -70.82512 13382 ft 336 kts 182°
2026-05-06 01:00 -32.55504 -70.82437 13079 ft 329 kts 182°
2026-05-06 01:00 -32.57781 -70.82368 12796 ft 324 kts 182°
2026-05-06 01:01 -32.60019 -70.82296 12481 ft 320 kts 182°
2026-05-06 01:01 -32.62228 -70.82223 12219 ft 317 kts 182°
2026-05-06 01:01 -32.64430 -70.82156 11972 ft 316 kts 181°
2026-05-06 01:01 -32.66631 -70.82079 11758 ft 316 kts 181°
2026-05-06 01:02 -32.68829 -70.81997 11520 ft 315 kts 181°
2026-05-06 01:02 -32.71015 -70.81922 11275 ft 314 kts 181°
2026-05-06 01:02 -32.73196 -70.81826 11029 ft 313 kts 181°
2026-05-06 01:02 -32.75368 -70.81732 10756 ft 312 kts 181°
2026-05-06 01:03 -32.77534 -70.81650 10467 ft 309 kts 181°
2026-05-06 01:03 -32.79664 -70.81573 10178 ft 304 kts 181°
2026-05-06 01:03 -32.81768 -70.81499 9914 ft 300 kts 181°
2026-05-06 01:03 -32.83846 -70.81422 9640 ft 297 kts 180°
2026-05-06 01:04 -32.85868 -70.81344 9336 ft 293 kts 180°
2026-05-06 01:04 -32.87893 -70.81272 9039 ft 288 kts 180°
2026-05-06 01:04 -32.89880 -70.81200 8762 ft 283 kts 180°
2026-05-06 01:04 -32.91831 -70.81131 8487 ft 278 kts 181°
2026-05-06 01:05 -32.93735 -70.81251 8219 ft 271 kts 189°
2026-05-06 01:05 -32.95580 -70.81577 7941 ft 265 kts 192°
2026-05-06 01:05 -32.97386 -70.81930 7681 ft 261 kts 191°
2026-05-06 01:05 -32.99164 -70.82247 7423 ft 256 kts 189°
2026-05-06 01:06 -33.00924 -70.82478 7161 ft 253 kts 183°
2026-05-06 01:06 -33.02668 -70.82440 6872 ft 249 kts 177°
2026-05-06 01:06 -33.04374 -70.82283 6602 ft 243 kts 176°
2026-05-06 01:06 -33.06040 -70.82125 6326 ft 237 kts 176°
2026-05-06 01:07 -33.07673 -70.81985 6041 ft 232 kts 177°
2026-05-06 01:07 -33.09258 -70.81866 5803 ft 225 kts 177°
2026-05-06 01:07 -33.10796 -70.81764 5597 ft 217 kts 178°
2026-05-06 01:07 -33.12282 -70.81681 5396 ft 212 kts 178°
2026-05-06 01:08 -33.13768 -70.81606 5208 ft 213 kts 178°
2026-05-06 01:08 -33.15248 -70.81536 5028 ft 212 kts 178°
2026-05-06 01:08 -33.16717 -70.81466 4859 ft 211 kts 177°
2026-05-06 01:08 -33.18157 -70.81396 4650 ft 209 kts 177°
2026-05-06 01:09 -33.19605 -70.81317 4450 ft 207 kts 177°
2026-05-06 01:09 -33.21026 -70.81240 4291 ft 202 kts 177°
2026-05-06 01:09 -33.22424 -70.81167 4121 ft 200 kts 177°
2026-05-06 01:09 -33.23780 -70.81094 3916 ft 189 kts 177°
2026-05-06 01:10 -33.25050 -70.81027 3726 ft 176 kts 176°
2026-05-06 01:10 -33.26234 -70.80962 3520 ft 165 kts 177°
2026-05-06 01:10 -33.27360 -70.80902 3305 ft 160 kts 176°
2026-05-06 01:10 -33.28465 -70.80844 3082 ft 157 kts 176°
2026-05-06 01:11 -33.29522 -70.80782 2949 ft 147 kts 176°
2026-05-06 01:11 -33.30520 -70.80728 2806 ft 138 kts 176°
2026-05-06 01:11 -33.31467 -70.80677 2675 ft 136 kts 175°
2026-05-06 01:11 -33.32421 -70.80615 2571 ft 139 kts 176°
2026-05-06 01:12 -33.33409 -70.80570 2380 ft 141 kts 176°
2026-05-06 01:12 -33.34372 -70.80534 2128 ft 135 kts 176°
2026-05-06 01:12 -33.35283 -70.80490 1928 ft 128 kts 175°
2026-05-06 01:12 -33.36171 -70.80428 1775 ft 127 kts 175°
2026-05-06 01:13 -33.37033 -70.80384 1646 ft 123 kts 176°
2026-05-06 01:13 -33.37849 -70.80333 1571 ft 101 kts 175°
2026-05-06 01:13 -33.38398 -70.80304 1571 ft 60 kts 177°
2026-05-06 01:13 -33.38715 -70.80283 1573 ft 38 kts 175°
2026-05-06 01:14 -33.39202 -70.80257 1571 ft 28 kts 170°
2026-05-06 01:14 -33.39329 -70.80197 1570 ft 18 kts 152°
2026-05-06 01:14 -33.39445 -70.80114 1566 ft 21 kts 147°
2026-05-06 01:15 -33.39528 -70.79976 1563 ft 22 kts 100°
2026-05-06 01:15 -33.39527 -70.79821 1563 ft 13 kts 87°
2026-05-06 01:15 -33.39528 -70.79719 1563 ft 8 kts 116°
2026-05-06 01:15 -33.39563 -70.79700 1563 ft 6 kts 172°
2026-05-06 01:16 -33.39593 -70.79697 1563 ft 1 kts 177°
2026-05-06 01:16 -33.39599 -70.79697 1563 ft 1 kts 177°